Regional Weather Roundup
Issued by NWS Grand Forks, ND

Home | Current Version | Previous Version | Graphics & Text | Print | Product List | Glossary On
Versions: 1 2 3 4 5 6 7 8 9 10 11 12 13 14 15 16 17 18 19 20 21 22 23 24 25 26 27 28 29 30 31 32 33 34 35 36 37 38 39 40 41 42 43 44 45 46 47 48 49 50
000
ASUS43 KFGF 251831
RWRFGF
PRAIRIE TO PINES  WEATHER ROUNDUP
NATIONAL WEATHER SERVICE EASTERN NORTH DAKOTA/GRAND FORKS ND
100 PM CDT THU MAY 25 2017

 **SATELLITE DATA USED TO AUGMENT SKY COVER AT AUTOMATED STATIONS**
 *****  WEATHER ACROSS EASTERN NORTH DAKOTA  *****

CITY           SKY/WX    TMP DP  RH WIND       PRES   REMARKS
GRAND FORKS    CLOUDY    68  47  46 SE25G35   29.49F
6HR MIN TEMP:  52; 6HR MAX TEMP:  69;

GRAND FRKS AFB FAIR      66  46  47 S25G38    29.47
DEVILS LAKE    CLOUDY    61  47  59 S15G21    29.45S
6HR MIN TEMP:  51; 6HR MAX TEMP:  62; 6HR PCP: TRACE;

FARGO          FAIR      69  47  45 SE18G38   29.50F
WAHPETON ARPT  MOCLDY    68  45  42 SE26G36   29.52S
$$

 ***** WEATHER ACROSS CENTRAL AND WESTERN NORTH DAKOTA  *****

CITY           SKY/WX    TMP DP  RH WIND       PRES   REMARKS
BISMARCK       FAIR      72  37  28 NW8       29.43S
6HR MIN TEMP:  49; 6HR MAX TEMP:  72;

MINOT          FAIR      69  37  30 S22       29.36S
6HR MIN TEMP:  51; 6HR MAX TEMP:  69;

JAMESTOWN      CLOUDY    63  48  58 S16G24    29.44R
6HR MIN TEMP:  51; 6HR MAX TEMP:  65;

MINOT AFB      FAIR      68  40  36 W20G26    29.35
GARRISON         N/A     67  37  33 SW20G28   29.39R
WILLISTON      CLOUDY    58  45  62 S13       29.36S
6HR MIN TEMP:  48; 6HR MAX TEMP:  58;

DICKINSON      FAIR      63  37  38 W28G38    29.42R
6HR MIN TEMP:  44; 6HR MAX TEMP:  63;

HETTINGER      FAIR      67  35  30 W18G29    29.48S
6HR MIN TEMP:  47; 6HR MAX TEMP:  67;

$$

 *****  OTHER AIRPORT OBSERVATIONS IN OUR AREA  *****

CITY           SKY/WX    TMP DP  RH WIND       PRES   REMARKS
WALHALLA       NOT AVBL
GRAFTON AIRPOR MOCLDY    66  46  48 S26G36    29.50S
VALLEY CITY AR CLOUDY    64  48  55 S15G26    29.47S
CANDO          NOT AVBL
CAVALIER APRT  MOCLDY    66  45  45 S21G33    29.47S
GWINNER        CLOUDY    68  48  49 MISG      29.46S
SHEYENNE NWR     N/A     68  50  52 S21       29.95S
ROLLA          FAIR      57  57 100 SE20G25   29.42F
 ***** THE ABOVE OBSERVATIONS ARE NON NWS ARE NOT QUALITY
       CONTROLLED AND MAY MIS-REPORT RAIN FOR SNOW...
$$

  *****  WEATHER ACROSS NORTHERN MINNESOTA  *****

CITY           SKY/WX    TMP DP  RH WIND       PRES   REMARKS
FLAG ISLAND    FAIR      57  48  72 S10       29.61F
WARROAD        FAIR      64  48  55 SE18      29.60F
ROSEAU         FAIR      64  48  55 SE13G23   29.58F
HALLOCK        FAIR      70  46  43 S23G31    29.50F
THF RVR FALLS  PTSUNNY   65  45  48 SE18G33   29.56F
6HR MIN TEMP:  49; 6HR MAX TEMP:  66;

BAUDETTE       PTSUNNY   63  46  54 S16       29.62F
6HR MIN TEMP:  45; 6HR MAX TEMP:  65;

WASKISH        CLOUDY    66  48  52 SE13G20   29.62F
CROOKSTON      FAIR      64  45  48 S21G30    29.53F
STEPHEN NDAWN    N/A     70  46  43 SE20        N/A
GREENBUSH NDAW   N/A     66  46  48 SE20        N/A
$$
  *****  WEATHER ACROSS CENTRAL AND WEST MINNESOTA  *****

CITY           SKY/WX    TMP DP  RH WIND       PRES   REMARKS
FOSSTON        FAIR      64  46  52 SE17G24   29.57F
BEMIDJI        PTSUNNY   64  46  51 SE14G23   29.61F
PARK RAPIDS    LGT RAIN  64  42  44 SE18G28   29.61F
6HR MIN TEMP:  50; 6HR MAX TEMP:  65; 6HR PCP: TRACE;

ELBOW LAKE     MOCLDY    67  50  54 S25G32    29.56S
6HR MIN TEMP:  51; 6HR MAX TEMP:  66;

WADENA         PTSUNNY   63  46  55 S18G25    29.60S
DETROIT LAKES  FAIR      64  46  52 S24G30    29.58S
MOORHEAD       FAIR      66  45  45 S30G36    29.52S
FERGUS FALLS   FAIR      66  46  48 S23G32    29.53F
MORRIS MN      FAIR      66  52  59 S24G35    29.54F
STAPLES        PTSUNNY   63  45  51 S14       29.62F
$$
  *****  WEATHER ELSEWHERE ACROSS MINNESOTA  *****

CITY           SKY/WX    TMP DP  RH WIND       PRES   REMARKS
DULUTH         FAIR      60  46  59 SE13G21   29.71F
6HR MIN TEMP:  45; 6HR MAX TEMP:  60;

INTRNTL FALLS  FAIR      65  43  44 S12G25    29.65F
6HR MIN TEMP:  45; 6HR MAX TEMP:  67;

ELY            PTSUNNY   61  43  51 SE14      29.71F
CLOQUET        FAIR      61  43  51 E10G16    29.70S
WHEATON        FAIR      68  48  49 SE23G32   29.53S
BRAINERD       CLOUDY    63  47  55 S15G21    29.65F
6HR MIN TEMP:  49; 6HR MAX TEMP:  63;

HIBBING        PTSUNNY   60  44  55 S9G21     29.69S
6HR MIN TEMP:  41; 6HR MAX TEMP:  61;

ALEXANDRIA     FAIR      65  47  52 SE21G29   29.60F
6HR MIN TEMP:  48; 6HR MAX TEMP:  66;

SAINT CLOUD    PTSUNNY   63  48  58 SE15      29.65F
6HR MIN TEMP:  48; 6HR MAX TEMP:  63;

MINNEAPOLIS    PTSUNNY   66  47  50 SE12      29.67F
6HR MIN TEMP:  52; 6HR MAX TEMP:  67;

$$

  *****  WEATHER ACROSS SOUTH DAKOTA  *****

CITY           SKY/WX    TMP DP  RH WIND       PRES   REMARKS
SIOUX FALLS    PTSUNNY   69  51  52 S21G33    29.53S
6HR MIN TEMP:  53; 6HR MAX TEMP:  69;

BROOKINGS      FAIR      67  49  52 S25G37    29.52R
WATERTOWN      CLOUDY    65  47  52 S23G36    29.50R
6HR MIN TEMP:  49; 6HR MAX TEMP:  67;

HURON          FAIR      68  51  54 S15G24    29.44F
6HR MIN TEMP:  52; 6HR MAX TEMP:  71;

SISSETON         N/A     69  48  47 S23G32    29.48S
ABERDEEN       PTSUNNY   68  46  45 S12       29.43F
6HR MIN TEMP:  52; 6HR MAX TEMP:  69;

MITCHELL       FAIR      71  50  47 S17G24    29.46S
PIERRE         FAIR      64  47  53 NW9       29.46S
6HR MIN TEMP:  52; 6HR MAX TEMP:  65; 6HR PCP: TRACE;

MOBRIDGE       FAIR      68  47  46 N10       29.42S
RAPID CITY     FAIR      67  26  21 N10       29.54R
6HR MIN TEMP:  51; 6HR MAX TEMP:  67;

$$

  *****  SOME WEATHER IN NEARBY STATES *****

CITY           SKY/WX    TMP DP  RH WIND       PRES   REMARKS
GLASGOW MT     PTSUNNY   58  39  49 NW28G43   29.40R
6HR MIN TEMP:  50; 6HR MAX TEMP:  60; 6HR PCP: TRACE;

GREAT FALLS MT FAIR      55  33  43 NW26G38   29.72R
6HR MIN TEMP:  44; 6HR MAX TEMP:  57; 6HR PCP: TRACE;

CHEYENNE WY    FAIR      60  40  47 N10       29.67R
6HR MIN TEMP:  50; 6HR MAX TEMP:  64;

SCOTTSBLUFF NE FAIR      68  44  42 W8        29.58R
6HR MIN TEMP:  54; 6HR MAX TEMP:  69;

OMAHA NE       FAIR      71  49  45 S18       29.61F
6HR MIN TEMP:  53; 6HR MAX TEMP:  72;

DES MOINES IA  FAIR      69  50  50 S9        29.68F
6HR MIN TEMP:  52; 6HR MAX TEMP:  69;

DAVENPORT IA   FAIR      67  54  63 NE6       29.69F
6HR MIN TEMP:  53; 6HR MAX TEMP:  67;

CHICAGO IL     CLOUDY    65  53  65 N10       29.63S
6HR MIN TEMP:  55; 6HR MAX TEMP:  66;

EAU CLAIRE WI  FAIR      69  51  52 SE8       29.67F
6HR MIN TEMP:  53; 6HR MAX TEMP:  69;

LA CROSSE WI   FAIR      66  54  65 NW6       29.68F
6HR MIN TEMP:  50; 6HR MAX TEMP:  66;

$$

  *****  SOME NATIONAL WEATHER *****

CITY           SKY/WX    TMP DP  RH WIND       PRES   REMARKS
LA GUARDIA NY  LGT RAIN  57  55  93 NE20      29.58F FOG
6HR MIN TEMP:  57; 6HR MAX TEMP:  59; 6HR PCP:  0.55;

RALEIGH NC     PTSUNNY   73  57  57 SW20G25   29.55F THUNDER
6HR MIN TEMP:  63; 6HR MAX TEMP:  75;

ATLANTA GA     FAIR      70  51  51 W16G26    29.81R
6HR MIN TEMP:  57; 6HR MAX TEMP:  71;

NEW ORLEANS LA FAIR      79  53  40 NW7       29.90F
6HR MIN TEMP:  61; 6HR MAX TEMP:  80;

OKLAHOMA CITY  FAIR      80  56  43 S16G24    29.59F
6HR MIN TEMP:  55; 6HR MAX TEMP:  80;

ALBUQUERQUE NM PTSUNNY   82  14   8 W24G33    29.83F
6HR MIN TEMP:  68; 6HR MAX TEMP:  82;

SALT LAKE CITY PTSUNNY   65  29  25 W13       29.74R
6HR MIN TEMP:  56; 6HR MAX TEMP:  66; 6HR PCP: TRACE;

LOS ANGELES CA CLOUDY    62  51  67 SW9       29.89R
6HR MIN TEMP:  59; 6HR M



USA.gov is the U.S. government's official web portal to all federal, state and local government web resources and services.